Year,Month,Day,Hour,Minute,Value (Times are PST for temperature in C)
2021,04,17,00,00,11.40
2021,04,17,00,01,11.30
2021,04,17,00,02,11.30
2021,04,17,00,03,11.20
2021,04,17,00,04,11.20
2021,04,17,00,05,11.20
2021,04,17,00,06,11.10
2021,04,17,00,07,11.10
2021,04,17,00,08,11.10
2021,04,17,00,09,11.00
2021,04,17,00,10,11.00
2021,04,17,00,11,11.00
2021,04,17,00,12,10.90
2021,04,17,00,13,10.90
2021,04,17,00,14,10.90
2021,04,17,00,15,10.90
2021,04,17,00,16,10.80
2021,04,17,00,17,10.80
2021,04,17,00,18,10.80
2021,04,17,00,19,10.80
2021,04,17,00,20,10.70
2021,04,17,00,21,10.70
2021,04,17,00,22,10.70
2021,04,17,00,23,10.60
2021,04,17,00,24,10.60
2021,04,17,00,25,10.60
2021,04,17,00,26,10.60
2021,04,17,00,27,10.60
2021,04,17,00,28,10.60
2021,04,17,00,29,10.60
2021,04,17,00,30,10.60
2021,04,17,00,31,10.60
2021,04,17,00,32,10.60
2021,04,17,00,33,10.60
2021,04,17,00,34,10.70
2021,04,17,00,35,10.70
2021,04,17,00,36,10.80
2021,04,17,00,37,10.90
2021,04,17,00,38,11.00
2021,04,17,00,39,11.10
2021,04,17,00,40,11.20
2021,04,17,00,41,11.20
2021,04,17,00,42,11.30
2021,04,17,00,43,11.30
2021,04,17,00,44,11.30
2021,04,17,00,45,11.30
2021,04,17,00,46,11.30
2021,04,17,00,47,11.30
2021,04,17,00,48,11.30
2021,04,17,00,49,11.30
2021,04,17,00,50,11.40
2021,04,17,00,51,11.50
2021,04,17,00,52,11.60
2021,04,17,00,53,11.60
2021,04,17,00,54,11.70
2021,04,17,00,55,11.80
2021,04,17,00,56,11.90
2021,04,17,00,57,12.10
2021,04,17,00,58,12.20
2021,04,17,00,59,12.20
2021,04,17,01,00,12.30
2021,04,17,01,01,12.30
2021,04,17,01,02,12.40
2021,04,17,01,03,12.40
2021,04,17,01,04,12.40
2021,04,17,01,05,12.30
2021,04,17,01,06,12.30
2021,04,17,01,07,12.30
2021,04,17,01,08,12.30
2021,04,17,01,09,12.30
2021,04,17,01,10,12.30
2021,04,17,01,11,12.20
2021,04,17,01,12,12.20
2021,04,17,01,13,12.10
2021,04,17,01,14,12.00
2021,04,17,01,15,12.00
2021,04,17,01,16,11.90
2021,04,17,01,17,11.80
2021,04,17,01,18,11.70
2021,04,17,01,19,11.70
2021,04,17,01,20,11.60
2021,04,17,01,21,11.60
2021,04,17,01,22,11.50
2021,04,17,01,23,11.50
2021,04,17,01,24,11.50
2021,04,17,01,25,11.50
2021,04,17,01,26,11.50
2021,04,17,01,27,11.50
2021,04,17,01,28,11.50
2021,04,17,01,29,11.50
2021,04,17,01,30,11.50
2021,04,17,01,31,11.60
2021,04,17,01,32,11.70
2021,04,17,01,33,11.80
2021,04,17,01,34,11.80
2021,04,17,01,35,11.90
2021,04,17,01,36,11.90
2021,04,17,01,37,11.80
2021,04,17,01,38,11.80
2021,04,17,01,39,11.70
2021,04,17,01,40,11.60
2021,04,17,01,41,11.50
2021,04,17,01,42,11.50
2021,04,17,01,43,11.40
2021,04,17,01,44,11.40
2021,04,17,01,45,11.30
2021,04,17,01,46,11.30
2021,04,17,01,47,11.20
2021,04,17,01,48,11.10
2021,04,17,01,49,11.00
2021,04,17,01,50,11.00
2021,04,17,01,51,10.90
2021,04,17,01,52,10.70
2021,04,17,01,53,10.70
2021,04,17,01,54,10.60
2021,04,17,01,55,10.50
2021,04,17,01,56,10.40
2021,04,17,01,57,10.40
2021,04,17,01,58,10.40
2021,04,17,01,59,10.40
2021,04,17,02,00,10.40
2021,04,17,02,01,10.40
2021,04,17,02,02,10.40
2021,04,17,02,03,10.40
2021,04,17,02,04,10.40
2021,04,17,02,05,10.40
2021,04,17,02,06,10.40
2021,04,17,02,07,10.30
2021,04,17,02,08,10.30
2021,04,17,02,09,10.30
2021,04,17,02,10,10.30
2021,04,17,02,11,10.40
2021,04,17,02,12,10.60
2021,04,17,02,13,10.70
2021,04,17,02,14,10.90
2021,04,17,02,15,11.00
2021,04,17,02,16,11.10
2021,04,17,02,17,11.20
2021,04,17,02,18,11.30
2021,04,17,02,19,11.30
2021,04,17,02,20,11.20
2021,04,17,02,21,11.20
2021,04,17,02,22,11.20
2021,04,17,02,23,11.20
2021,04,17,02,24,11.20
2021,04,17,02,25,11.30
2021,04,17,02,26,11.40
2021,04,17,02,27,11.50
2021,04,17,02,28,11.50
2021,04,17,02,29,11.50
2021,04,17,02,30,11.50
2021,04,17,02,31,11.50
2021,04,17,02,32,11.40
2021,04,17,02,33,11.40
2021,04,17,02,34,11.50
2021,04,17,02,35,11.60
2021,04,17,02,36,11.70
2021,04,17,02,37,11.70
2021,04,17,02,38,11.70
2021,04,17,02,39,11.60
2021,04,17,02,40,11.60
2021,04,17,02,41,11.50
2021,04,17,02,42,11.40
2021,04,17,02,43,11.10
2021,04,17,02,44,11.00
2021,04,17,02,45,10.80
2021,04,17,02,46,10.70
2021,04,17,02,47,10.50
2021,04,17,02,48,10.40
2021,04,17,02,49,10.30
2021,04,17,02,50,10.40
2021,04,17,02,51,10.40
2021,04,17,02,52,10.40
2021,04,17,02,53,10.40
2021,04,17,02,54,10.30
2021,04,17,02,55,10.30
2021,04,17,02,56,10.20
2021,04,17,02,57,10.10
2021,04,17,02,58,10.00
2021,04,17,02,59,9.90
2021,04,17,03,00,9.80
2021,04,17,03,01,9.70
2021,04,17,03,02,9.60
2021,04,17,03,03,9.50
2021,04,17,03,04,9.50
2021,04,17,03,05,9.40
2021,04,17,03,06,9.30
2021,04,17,03,07,9.20
2021,04,17,03,08,9.10
2021,04,17,03,09,9.00
2021,04,17,03,10,9.00
2021,04,17,03,11,9.00
2021,04,17,03,12,8.90
2021,04,17,03,13,8.90
2021,04,17,03,14,8.90
2021,04,17,03,15,8.90
2021,04,17,03,16,8.90
2021,04,17,03,17,8.80
2021,04,17,03,18,8.80
2021,04,17,03,19,8.80
2021,04,17,03,20,8.80
2021,04,17,03,21,8.80
2021,04,17,03,22,8.80
2021,04,17,03,23,8.80
2021,04,17,03,24,8.80
2021,04,17,03,25,8.90
2021,04,17,03,26,9.00
2021,04,17,03,27,9.10
2021,04,17,03,28,9.20
2021,04,17,03,29,9.30
2021,04,17,03,30,9.50
2021,04,17,03,31,9.70
2021,04,17,03,32,9.90
2021,04,17,03,33,10.10
2021,04,17,03,34,10.30
2021,04,17,03,35,10.50
2021,04,17,03,36,10.70
2021,04,17,03,37,10.80
2021,04,17,03,38,10.90
2021,04,17,03,39,10.90
2021,04,17,03,40,10.90
2021,04,17,03,41,11.00
2021,04,17,03,42,11.00
2021,04,17,03,43,10.90
2021,04,17,03,44,10.90
2021,04,17,03,45,10.80
2021,04,17,03,46,10.80
2021,04,17,03,47,10.70
2021,04,17,03,48,10.60
2021,04,17,03,49,10.40
2021,04,17,03,50,10.30
2021,04,17,03,51,10.10
2021,04,17,03,52,10.00
2021,04,17,03,53,9.80
2021,04,17,03,54,9.60
2021,04,17,03,55,9.40
2021,04,17,03,56,9.30
2021,04,17,03,57,9.10
2021,04,17,03,58,9.00
2021,04,17,03,59,8.90
2021,04,17,04,00,8.80
2021,04,17,04,01,8.70
2021,04,17,04,02,8.70
2021,04,17,04,03,8.60
2021,04,17,04,04,8.60
2021,04,17,04,05,8.60
2021,04,17,04,06,8.60
2021,04,17,04,07,8.60
2021,04,17,04,08,8.70
2021,04,17,04,09,8.90
2021,04,17,04,10,9.30
2021,04,17,04,11,9.80
2021,04,17,04,12,10.20
2021,04,17,04,13,10.60
2021,04,17,04,14,11.00
2021,04,17,04,15,11.30
2021,04,17,04,16,11.50
2021,04,17,04,17,11.70
2021,04,17,04,18,11.90
2021,04,17,04,19,12.10
2021,04,17,04,20,12.20
2021,04,17,04,21,12.30
2021,04,17,04,22,12.40
2021,04,17,04,23,12.50
2021,04,17,04,24,12.50
2021,04,17,04,25,12.50
2021,04,17,04,26,12.50
2021,04,17,04,27,12.50
2021,04,17,04,28,12.40
2021,04,17,04,29,12.40
2021,04,17,04,30,12.40
2021,04,17,04,31,12.40
2021,04,17,04,32,12.40
2021,04,17,04,33,12.40
2021,04,17,04,34,12.30
2021,04,17,04,35,12.30
2021,04,17,04,36,12.20
2021,04,17,04,37,12.10
2021,04,17,04,38,12.10
2021,04,17,04,39,12.10
2021,04,17,04,40,12.10
2021,04,17,04,41,12.10
2021,04,17,04,42,12.10
2021,04,17,04,43,12.00
2021,04,17,04,44,11.90
2021,04,17,04,45,11.80
2021,04,17,04,46,11.60
2021,04,17,04,47,11.50
2021,04,17,04,48,11.30
2021,04,17,04,49,11.20
2021,04,17,04,50,11.10
2021,04,17,04,51,10.90
2021,04,17,04,52,10.80
2021,04,17,04,53,10.70
2021,04,17,04,54,10.50
2021,04,17,04,55,10.40
2021,04,17,04,56,10.20
2021,04,17,04,57,10.10
2021,04,17,04,58,10.00
2021,04,17,04,59,10.00
2021,04,17,05,00,10.00
2021,04,17,05,01,9.90
2021,04,17,05,02,9.90
2021,04,17,05,03,9.90
2021,04,17,05,04,9.80
2021,04,17,05,05,9.80
2021,04,17,05,06,9.80
2021,04,17,05,07,9.80
2021,04,17,05,08,9.80
2021,04,17,05,09,9.80
2021,04,17,05,10,9.70
2021,04,17,05,11,9.70
2021,04,17,05,12,9.70
2021,04,17,05,13,9.60
2021,04,17,05,14,9.60
2021,04,17,05,15,9.60
2021,04,17,05,16,9.60
2021,04,17,05,17,9.60
2021,04,17,05,18,9.60
2021,04,17,05,19,9.60
2021,04,17,05,20,9.70
2021,04,17,05,21,9.70
2021,04,17,05,22,9.80
2021,04,17,05,23,9.90
2021,04,17,05,24,10.00
2021,04,17,05,25,10.00
2021,04,17,05,26,10.10
2021,04,17,05,27,10.10
2021,04,17,05,28,10.20
2021,04,17,05,29,10.20
2021,04,17,05,30,10.20
2021,04,17,05,31,10.20
2021,04,17,05,32,10.20
2021,04,17,05,33,10.20
2021,04,17,05,34,10.20
2021,04,17,05,35,10.30
2021,04,17,05,36,10.30
2021,04,17,05,37,10.40
2021,04,17,05,38,10.60
2021,04,17,05,39,10.70
2021,04,17,05,40,10.90
2021,04,17,05,41,11.10
2021,04,17,05,42,11.30
2021,04,17,05,43,11.40
2021,04,17,05,44,11.60
2021,04,17,05,45,11.80
2021,04,17,05,46,12.00
2021,04,17,05,47,12.20
2021,04,17,05,48,12.30
2021,04,17,05,49,12.40
2021,04,17,05,50,12.40
2021,04,17,05,51,12.50
2021,04,17,05,52,12.50
2021,04,17,05,53,12.60
2021,04,17,05,54,12.60
2021,04,17,05,55,12.60
2021,04,17,05,56,12.70
2021,04,17,05,57,12.50
2021,04,17,05,58,12.40
2021,04,17,05,59,12.20
2021,04,17,06,00,12.10
2021,04,17,06,01,11.90
2021,04,17,06,02,11.80
2021,04,17,06,03,11.70
2021,04,17,06,04,11.60
2021,04,17,06,05,11.60
2021,04,17,06,06,11.60
2021,04,17,06,07,11.50
2021,04,17,06,08,11.60
2021,04,17,06,09,11.60
2021,04,17,06,10,11.70
2021,04,17,06,11,11.80
2021,04,17,06,12,11.90
2021,04,17,06,13,11.90
2021,04,17,06,14,12.00
2021,04,17,06,15,12.00
2021,04,17,06,16,12.10
2021,04,17,06,17,12.10
2021,04,17,06,18,12.20
2021,04,17,06,19,12.20
2021,04,17,06,20,12.20
2021,04,17,06,21,12.20
2021,04,17,06,22,12.30
2021,04,17,06,23,12.30
2021,04,17,06,24,12.30
2021,04,17,06,25,12.30
2021,04,17,06,26,12.30
2021,04,17,06,27,12.30
2021,04,17,06,28,12.30
2021,04,17,06,29,12.30
2021,04,17,06,30,12.30
2021,04,17,06,31,12.30
2021,04,17,06,32,12.30
2021,04,17,06,33,12.30
2021,04,17,06,34,12.30
2021,04,17,06,35,12.30
2021,04,17,06,36,12.30
2021,04,17,06,37,12.30
2021,04,17,06,38,12.30
2021,04,17,06,39,12.30
2021,04,17,06,40,12.30
2021,04,17,06,41,12.40
2021,04,17,06,42,12.40
2021,04,17,06,43,12.40
2021,04,17,06,44,12.40
2021,04,17,06,45,12.40
2021,04,17,06,46,12.50
2021,04,17,06,47,12.50
2021,04,17,06,48,12.50
2021,04,17,06,49,12.50
2021,04,17,06,50,12.50
2021,04,17,06,51,12.60
2021,04,17,06,52,12.60
2021,04,17,06,53,12.60
2021,04,17,06,54,12.60
2021,04,17,06,55,12.60
2021,04,17,06,56,12.70
2021,04,17,06,57,12.70
2021,04,17,06,58,12.70
2021,04,17,06,59,12.70
2021,04,17,07,00,12.70
2021,04,17,07,01,12.70
2021,04,17,07,02,12.80
2021,04,17,07,03,12.80
2021,04,17,07,04,12.80
2021,04,17,07,05,12.70
2021,04,17,07,06,12.70
2021,04,17,07,07,12.70
2021,04,17,07,08,12.70
2021,04,17,07,09,12.70
2021,04,17,07,10,12.70
2021,04,17,07,11,12.70
2021,04,17,07,12,12.70
2021,04,17,07,13,12.70
2021,04,17,07,14,12.70
2021,04,17,07,15,12.70
2021,04,17,07,16,12.70
2021,04,17,07,17,12.70
2021,04,17,07,18,12.70
2021,04,17,07,19,12.70
2021,04,17,07,20,12.70
2021,04,17,07,21,12.70
2021,04,17,07,22,12.80
2021,04,17,07,23,12.80
2021,04,17,07,24,12.80
2021,04,17,07,25,12.90
2021,04,17,07,26,12.90
2021,04,17,07,27,13.00
2021,04,17,07,28,13.10
2021,04,17,07,29,13.20
2021,04,17,07,30,13.30
2021,04,17,07,31,13.30
2021,04,17,07,32,13.40
2021,04,17,07,33,13.40
2021,04,17,07,34,13.50
2021,04,17,07,35,13.50
2021,04,17,07,36,13.50
2021,04,17,07,37,13.60
2021,04,17,07,38,13.60
2021,04,17,07,39,13.70
2021,04,17,07,40,13.70
2021,04,17,07,41,13.70
2021,04,17,07,42,13.80
2021,04,17,07,43,13.80
2021,04,17,07,44,13.80
2021,04,17,07,45,13.90
2021,04,17,07,46,13.90
2021,04,17,07,47,14.00
2021,04,17,07,48,14.00
2021,04,17,07,49,14.10
2021,04,17,07,50,14.10
2021,04,17,07,51,14.10
2021,04,17,07,52,14.20
2021,04,17,07,53,14.20
2021,04,17,07,54,14.20
2021,04,17,07,55,14.20
2021,04,17,07,56,14.20
2021,04,17,07,57,14.30
2021,04,17,07,58,14.30
2021,04,17,07,59,14.30
2021,04,17,08,00,14.30
2021,04,17,08,01,14.40
2021,04,17,08,02,14.40
2021,04,17,08,03,14.40
2021,04,17,08,04,14.40
2021,04,17,08,05,14.50
2021,04,17,08,06,14.50
2021,04,17,08,07,14.50
2021,04,17,08,08,14.60
2021,04,17,08,09,14.60
2021,04,17,08,10,14.60
2021,04,17,08,11,14.60
2021,04,17,08,12,14.60
2021,04,17,08,13,14.70
2021,04,17,08,14,14.70
2021,04,17,08,15,14.70
2021,04,17,08,16,14.80
2021,04,17,08,17,14.80
2021,04,17,08,18,14.80
2021,04,17,08,19,14.80
2021,04,17,08,20,14.90
2021,04,17,08,21,14.90
2021,04,17,08,22,15.00
2021,04,17,08,23,15.00
2021,04,17,08,24,15.10
2021,04,17,08,25,15.10
2021,04,17,08,26,15.20
2021,04,17,08,27,15.20
2021,04,17,08,28,15.20
2021,04,17,08,29,15.20
2021,04,17,08,30,15.20
2021,04,17,08,31,15.20
2021,04,17,08,32,15.20
2021,04,17,08,33,15.20
2021,04,17,08,34,15.30
2021,04,17,08,35,15.30
2021,04,17,08,36,15.30
2021,04,17,08,37,15.30
2021,04,17,08,38,15.30
2021,04,17,08,39,15.30
2021,04,17,08,40,15.20
2021,04,17,08,41,15.20
2021,04,17,08,42,15.20
2021,04,17,08,43,15.10
2021,04,17,08,44,15.10
2021,04,17,08,45,15.10
2021,04,17,08,46,15.10
2021,04,17,08,47,15.10
2021,04,17,08,48,15.00
2021,04,17,08,49,15.00
2021,04,17,08,50,14.90
2021,04,17,08,51,14.90
2021,04,17,08,52,14.90
2021,04,17,08,53,14.90
2021,04,17,08,54,14.90
2021,04,17,08,55,14.90
2021,04,17,08,56,14.90
2021,04,17,08,57,15.00
2021,04,17,08,58,15.00
2021,04,17,08,59,15.10
2021,04,17,09,00,15.10
2021,04,17,09,01,15.20
2021,04,17,09,02,15.30
2021,04,17,09,03,15.30
2021,04,17,09,04,15.40
2021,04,17,09,05,15.40
2021,04,17,09,06,15.40
2021,04,17,09,07,15.40
2021,04,17,09,08,15.50
2021,04,17,09,09,15.50
2021,04,17,09,10,15.60
2021,04,17,09,11,15.60
2021,04,17,09,12,15.70
2021,04,17,09,13,15.70
2021,04,17,09,14,15.70
2021,04,17,09,15,15.80
2021,04,17,09,16,15.70
2021,04,17,09,17,15.70
2021,04,17,09,18,15.70
2021,04,17,09,19,15.70
2021,04,17,09,20,15.70
2021,04,17,09,21,15.70
2021,04,17,09,22,15.80
2021,04,17,09,23,15.80
2021,04,17,09,24,15.80
2021,04,17,09,25,15.80
2021,04,17,09,26,15.80
2021,04,17,09,27,15.80
2021,04,17,09,28,15.90
2021,04,17,09,29,15.90
2021,04,17,09,30,15.90
2021,04,17,09,31,16.00
2021,04,17,09,32,16.10
2021,04,17,09,33,16.20
2021,04,17,09,34,16.30
2021,04,17,09,35,16.40
2021,04,17,09,36,16.50
2021,04,17,09,37,16.60
2021,04,17,09,38,16.60
2021,04,17,09,39,16.80
2021,04,17,09,40,16.80
2021,04,17,09,41,16.80
2021,04,17,09,42,16.70
2021,04,17,09,43,16.80
2021,04,17,09,44,16.90
2021,04,17,09,45,16.90
2021,04,17,09,46,17.00
2021,04,17,09,47,17.00
2021,04,17,09,48,16.90
2021,04,17,09,49,16.80
2021,04,17,09,50,16.80
2021,04,17,09,51,16.80
2021,04,17,09,52,16.80
2021,04,17,09,53,16.70
2021,04,17,09,54,16.60
2021,04,17,09,55,16.50
2021,04,17,09,56,16.50
2021,04,17,09,57,16.50
2021,04,17,09,58,16.60
2021,04,17,09,59,16.70
2021,04,17,10,00,16.80
2021,04,17,10,01,16.90
2021,04,17,10,02,17.00
2021,04,17,10,03,17.00
2021,04,17,10,04,17.00
2021,04,17,10,05,17.00
2021,04,17,10,06,17.00
2021,04,17,10,07,17.10
2021,04,17,10,08,17.10
2021,04,17,10,09,17.10
2021,04,17,10,10,17.10
2021,04,17,10,11,17.20
2021,04,17,10,12,17.20
2021,04,17,10,13,17.20
2021,04,17,10,14,17.20
2021,04,17,10,15,17.10
2021,04,17,10,16,17.00
2021,04,17,10,17,17.00
2021,04,17,10,18,16.90
2021,04,17,10,19,16.80
2021,04,17,10,20,16.80
2021,04,17,10,21,16.70
2021,04,17,10,22,16.80
2021,04,17,10,23,16.80
2021,04,17,10,24,16.90
2021,04,17,10,25,16.80
2021,04,17,10,26,16.80
2021,04,17,10,27,16.80
2021,04,17,10,28,16.80
2021,04,17,10,29,16.90
2021,04,17,10,30,16.90
2021,04,17,10,31,16.90
2021,04,17,10,32,16.80
2021,04,17,10,33,16.80
2021,04,17,10,34,16.70
2021,04,17,10,35,16.70
2021,04,17,10,36,16.70
2021,04,17,10,37,16.70
2021,04,17,10,38,16.70
2021,04,17,10,39,16.70
2021,04,17,10,40,16.80
2021,04,17,10,41,16.80
2021,04,17,10,42,16.90
2021,04,17,10,43,16.90
2021,04,17,10,44,16.90
2021,04,17,10,45,17.00
2021,04,17,10,46,17.00
2021,04,17,10,47,17.00
2021,04,17,10,48,17.10
2021,04,17,10,49,17.20
2021,04,17,10,50,17.30
2021,04,17,10,51,17.40
2021,04,17,10,52,17.40
2021,04,17,10,53,17.30
2021,04,17,10,54,17.30
2021,04,17,10,55,17.30
2021,04,17,10,56,17.20
2021,04,17,10,57,17.30
2021,04,17,10,58,17.40
2021,04,17,10,59,17.40
2021,04,17,11,00,17.50
2021,04,17,11,01,17.60
2021,04,17,11,02,17.70
2021,04,17,11,03,17.70
2021,04,17,11,04,17.70
2021,04,17,11,05,17.60
2021,04,17,11,06,17.50
2021,04,17,11,07,17.50
2021,04,17,11,08,17.50
2021,04,17,11,09,17.50
2021,04,17,11,10,17.60
2021,04,17,11,11,17.60
2021,04,17,11,12,17.70
2021,04,17,11,13,17.70
2021,04,17,11,14,17.80
2021,04,17,11,15,17.80
2021,04,17,11,16,17.80
2021,04,17,11,17,17.80
2021,04,17,11,18,17.90
2021,04,17,11,19,18.00
2021,04,17,11,20,18.00
2021,04,17,11,21,18.00
2021,04,17,11,22,17.90
2021,04,17,11,23,17.90
2021,04,17,11,24,18.10
2021,04,17,11,25,18.20
2021,04,17,11,26,18.30
2021,04,17,11,27,18.50
2021,04,17,11,28,18.50
2021,04,17,11,29,18.60
2021,04,17,11,30,18.60
2021,04,17,11,31,18.70
2021,04,17,11,32,18.60
2021,04,17,11,33,18.50
2021,04,17,11,34,18.40
2021,04,17,11,35,18.40
2021,04,17,11,36,18.60
2021,04,17,11,37,18.60
2021,04,17,11,38,18.50
2021,04,17,11,39,18.40
2021,04,17,11,40,18.40
2021,04,17,11,41,18.40
2021,04,17,11,42,18.40
2021,04,17,11,43,18.30
2021,04,17,11,44,18.30
2021,04,17,11,45,18.50
2021,04,17,11,46,18.50
2021,04,17,11,47,18.60
2021,04,17,11,48,18.60
2021,04,17,11,49,18.60
2021,04,17,11,50,18.60
2021,04,17,11,51,18.60
2021,04,17,11,52,18.50
2021,04,17,11,53,18.40
2021,04,17,11,54,18.40
2021,04,17,11,55,18.40
2021,04,17,11,56,18.40
2021,04,17,11,57,18.40
2021,04,17,11,58,18.50
2021,04,17,11,59,18.60
2021,04,17,12,00,18.70
2021,04,17,12,01,18.80
2021,04,17,12,02,18.90
2021,04,17,12,03,18.90
2021,04,17,12,04,19.00
2021,04,17,12,05,19.00
2021,04,17,12,06,19.10
2021,04,17,12,07,19.20
2021,04,17,12,08,19.10
2021,04,17,12,09,19.10
2021,04,17,12,10,19.10
2021,04,17,12,11,19.10
2021,04,17,12,12,19.10
2021,04,17,12,13,19.10
2021,04,17,12,14,19.10
2021,04,17,12,15,19.20
2021,04,17,12,16,19.30
2021,04,17,12,17,19.40
2021,04,17,12,18,19.50
2021,04,17,12,19,19.50
2021,04,17,12,20,19.40
2021,04,17,12,21,19.30
2021,04,17,12,22,19.20
2021,04,17,12,23,19.10
2021,04,17,12,24,19.00
2021,04,17,12,25,19.00
2021,04,17,12,26,19.10
2021,04,17,12,27,19.10
2021,04,17,12,28,19.20
2021,04,17,12,29,19.20
2021,04,17,12,30,19.40
2021,04,17,12,31,19.50
2021,04,17,12,32,19.60
2021,04,17,12,33,19.80
2021,04,17,12,34,19.90
2021,04,17,12,35,20.10
2021,04,17,12,36,20.10
2021,04,17,12,37,20.10
2021,04,17,12,38,20.10
2021,04,17,12,39,20.20
2021,04,17,12,40,20.20
2021,04,17,12,41,20.20
2021,04,17,12,42,20.10
2021,04,17,12,43,20.00
2021,04,17,12,44,19.90
2021,04,17,12,45,19.80
2021,04,17,12,46,19.70
2021,04,17,12,47,19.70
2021,04,17,12,48,19.70
2021,04,17,12,49,19.70
2021,04,17,12,50,19.70
2021,04,17,12,51,19.70
2021,04,17,12,52,19.70
2021,04,17,12,53,19.70
2021,04,17,12,54,19.70
2021,04,17,12,55,19.80
2021,04,17,12,56,19.80
2021,04,17,12,57,19.80
2021,04,17,12,58,19.80
2021,04,17,12,59,19.80
2021,04,17,13,00,19.90
2021,04,17,13,01,19.90
2021,04,17,13,02,19.90
2021,04,17,13,03,19.90
2021,04,17,13,04,19.90
2021,04,17,13,05,19.90
2021,04,17,13,06,19.90
2021,04,17,13,07,19.90
2021,04,17,13,08,20.00
2021,04,17,13,09,20.10
2021,04,17,13,10,20.10
2021,04,17,13,11,20.10
2021,04,17,13,12,20.30
2021,04,17,13,13,20.40
2021,04,17,13,14,20.40
2021,04,17,13,15,20.50
2021,04,17,13,16,20.70
2021,04,17,13,17,20.80
2021,04,17,13,18,20.90
2021,04,17,13,19,20.90
2021,04,17,13,20,21.00
2021,04,17,13,21,21.00
2021,04,17,13,22,21.10
2021,04,17,13,23,21.10
2021,04,17,13,24,20.90
2021,04,17,13,25,20.90
2021,04,17,13,26,20.80
2021,04,17,13,27,20.70
2021,04,17,13,28,20.50
2021,04,17,13,29,20.40
2021,04,17,13,30,20.40
2021,04,17,13,31,20.30
2021,04,17,13,32,20.30
2021,04,17,13,33,20.30
2021,04,17,13,34,20.30
2021,04,17,13,35,20.30
2021,04,17,13,36,20.50
2021,04,17,13,37,20.70
2021,04,17,13,38,20.70
2021,04,17,13,39,20.60
2021,04,17,13,40,20.60
2021,04,17,13,41,20.60
2021,04,17,13,42,20.70
2021,04,17,13,43,20.70
2021,04,17,13,44,20.80
2021,04,17,13,45,20.90
2021,04,17,13,46,21.00
2021,04,17,13,47,21.10
2021,04,17,13,48,21.20
2021,04,17,13,49,21.10
2021,04,17,13,50,21.00
2021,04,17,13,51,20.90
2021,04,17,13,52,20.80
2021,04,17,13,53,20.90
2021,04,17,13,54,21.00
2021,04,17,13,55,21.10
2021,04,17,13,56,21.00
2021,04,17,13,57,20.90
2021,04,17,13,58,20.90
2021,04,17,13,59,20.80
2021,04,17,14,00,20.70
2021,04,17,14,01,20.70
2021,04,17,14,02,20.80
2021,04,17,14,03,20.80
2021,04,17,14,04,20.80
2021,04,17,14,05,20.80
2021,04,17,14,06,20.80
2021,04,17,14,07,20.80
2021,04,17,14,08,20.80
2021,04,17,14,09,21.00
2021,04,17,14,10,21.00
2021,04,17,14,11,21.00
2021,04,17,14,12,20.90
2021,04,17,14,13,20.90
2021,04,17,14,14,20.80
2021,04,17,14,15,20.80
2021,04,17,14,16,20.80
2021,04,17,14,17,20.70
2021,04,17,14,18,20.70
2021,04,17,14,19,20.70
2021,04,17,14,20,20.60
2021,04,17,14,21,20.60
2021,04,17,14,22,20.60
2021,04,17,14,23,20.70
2021,04,17,14,24,20.80
2021,04,17,14,25,20.80
2021,04,17,14,26,20.90
2021,04,17,14,27,21.00
2021,04,17,14,28,21.10
2021,04,17,14,29,21.10
2021,04,17,14,30,21.20
2021,04,17,14,31,21.30
2021,04,17,14,32,21.20
2021,04,17,14,33,21.20
2021,04,17,14,34,21.20
2021,04,17,14,35,21.20
2021,04,17,14,36,21.20
2021,04,17,14,37,21.20
2021,04,17,14,38,21.30
2021,04,17,14,39,21.30
2021,04,17,14,40,21.40
2021,04,17,14,41,21.50
2021,04,17,14,42,21.50
2021,04,17,14,43,21.40
2021,04,17,14,44,21.50
2021,04,17,14,45,21.70
2021,04,17,14,46,21.80
2021,04,17,14,47,21.80
2021,04,17,14,48,21.80
2021,04,17,14,49,21.80
2021,04,17,14,50,21.80
2021,04,17,14,51,21.70
2021,04,17,14,52,21.60
2021,04,17,14,53,21.50
2021,04,17,14,54,21.40
2021,04,17,14,55,21.40
2021,04,17,14,56,21.40
2021,04,17,14,57,21.40
2021,04,17,14,58,21.40
2021,04,17,14,59,21.40
2021,04,17,15,00,21.50
2021,04,17,15,01,21.60
2021,04,17,15,02,21.80
2021,04,17,15,03,21.90
2021,04,17,15,04,22.20
2021,04,17,15,05,22.30
2021,04,17,15,06,22.40
2021,04,17,15,07,22.50
2021,04,17,15,08,22.60
2021,04,17,15,09,22.60
2021,04,17,15,10,22.60
2021,04,17,15,11,22.60
2021,04,17,15,12,22.60
2021,04,17,15,13,22.60
2021,04,17,15,14,22.50
2021,04,17,15,15,22.50
2021,04,17,15,16,22.50
2021,04,17,15,17,22.60
2021,04,17,15,18,22.60
2021,04,17,15,19,22.50
2021,04,17,15,20,22.40
2021,04,17,15,21,22.30
2021,04,17,15,22,22.30
2021,04,17,15,23,22.20
2021,04,17,15,24,22.20
2021,04,17,15,25,22.10
2021,04,17,15,26,22.00
2021,04,17,15,27,22.00
2021,04,17,15,28,22.00
2021,04,17,15,29,22.10
2021,04,17,15,30,22.20
2021,04,17,15,31,22.30
2021,04,17,15,32,22.30
2021,04,17,15,33,22.20
2021,04,17,15,34,22.10
2021,04,17,15,35,22.10
2021,04,17,15,36,22.10
2021,04,17,15,37,22.10
2021,04,17,15,38,22.10
2021,04,17,15,39,22.20
2021,04,17,15,40,22.30
2021,04,17,15,41,22.20
2021,04,17,15,42,22.20
2021,04,17,15,43,22.30
2021,04,17,15,44,22.30
2021,04,17,15,45,22.50
2021,04,17,15,46,22.70
2021,04,17,15,47,22.70
2021,04,17,15,48,22.70
2021,04,17,15,49,22.60
2021,04,17,15,50,22.60
2021,04,17,15,51,22.60
2021,04,17,15,52,22.50
2021,04,17,15,53,22.40
2021,04,17,15,54,22.30
2021,04,17,15,55,22.30
2021,04,17,15,56,22.40
2021,04,17,15,57,22.30
2021,04,17,15,58,22.30
2021,04,17,15,59,22.30
2021,04,17,16,00,22.30
2021,04,17,16,01,22.40
2021,04,17,16,02,22.60
2021,04,17,16,03,22.70
2021,04,17,16,04,22.80
2021,04,17,16,05,22.90
2021,04,17,16,06,23.00
2021,04,17,16,07,23.10
2021,04,17,16,08,23.10
2021,04,17,16,09,23.10
2021,04,17,16,10,23.10
2021,04,17,16,11,23.00
2021,04,17,16,12,23.00
2021,04,17,16,13,23.00
2021,04,17,16,14,22.90
2021,04,17,16,15,22.90
2021,04,17,16,16,22.80
2021,04,17,16,17,22.70
2021,04,17,16,18,22.80
2021,04,17,16,19,22.90
2021,04,17,16,20,22.90
2021,04,17,16,21,22.90
2021,04,17,16,22,22.80
2021,04,17,16,23,22.80
2021,04,17,16,24,22.90
2021,04,17,16,25,22.90
2021,04,17,16,26,22.80
2021,04,17,16,27,22.70
2021,04,17,16,28,22.70
2021,04,17,16,29,22.60
2021,04,17,16,30,22.60
2021,04,17,16,31,22.60
2021,04,17,16,32,22.50
2021,04,17,16,33,22.40
2021,04,17,16,34,22.40
2021,04,17,16,35,22.40
2021,04,17,16,36,22.50
2021,04,17,16,37,22.60
2021,04,17,16,38,22.80
2021,04,17,16,39,22.80
2021,04,17,16,40,22.80
2021,04,17,16,41,22.70
2021,04,17,16,42,22.70
2021,04,17,16,43,22.80
2021,04,17,16,44,22.80
2021,04,17,16,45,22.90
2021,04,17,16,46,23.00
2021,04,17,16,47,23.00
2021,04,17,16,48,22.90
2021,04,17,16,49,22.70
2021,04,17,16,50,22.70
2021,04,17,16,51,22.70
2021,04,17,16,52,22.70
2021,04,17,16,53,22.70
2021,04,17,16,54,22.80
2021,04,17,16,55,22.80
2021,04,17,16,56,22.80
2021,04,17,16,57,22.80
2021,04,17,16,58,22.70
2021,04,17,16,59,22.60
2021,04,17,17,00,22.60
2021,04,17,17,01,22.70
2021,04,17,17,02,22.80
2021,04,17,17,03,22.90
2021,04,17,17,04,23.10
2021,04,17,17,05,23.20
2021,04,17,17,06,23.20
2021,04,17,17,07,23.20
2021,04,17,17,08,23.10
2021,04,17,17,09,23.10
2021,04,17,17,10,22.90
2021,04,17,17,11,22.80
2021,04,17,17,12,22.80
2021,04,17,17,13,22.70
2021,04,17,17,14,22.60
2021,04,17,17,15,22.50
2021,04,17,17,16,22.60
2021,04,17,17,17,22.70
2021,04,17,17,18,22.80
2021,04,17,17,19,22.80
2021,04,17,17,20,22.80
2021,04,17,17,21,22.80
2021,04,17,17,22,22.90